Location: B?lite?ti
(46.2833°N, 22.7333°E)
Time: 17:01:10
(UTC+00:00)

H-2A R/B - Pass Details

Date: 24 January 2021
Orbit: 734 x 836 km, 98.2° (Epoch: 01 March)

Event Time Altitude Azimuth Distance (km) Brightness Sun altitude
Rises 17:44:31 0° 183° (S) 3,177 5.3 -24.4°
Reaches altitude 10° 17:46:51 10° 189° (S) 2,270 4.6 -24.8°
Maximum altitude 17:51:38 45° 262° (W) 1,042 3.1 -25.7°
Drops below altitude 10° 17:56:35 10° 335° (NNW) 2,346 4.8 -26.5°
Sets 17:59:03 0° 342° (NNW) 3,296 5.5 -26.9°
